| time (UTC) | temp F | wind direction | speed MPH | gust MPH | rain 1hr in | rain 24hr in | rain mn in | humidity % | barometer mb |
| 20260506222016 | 55 | 346 | 13.0 | 21.0 | 0.00 | 0.25 | 0.25 | 83 | 1007.9 |
| 20260506221536 | 55 | 5 | 14.0 | 21.0 | 0.00 | 0.25 | 0.25 | 83 | 1007.7 |
| 20260506221013 | 56 | 9 | 12.0 | 18.0 | 0.00 | 0.25 | 0.25 | 84 | 1007.6 |
| 20260506220514 | 57 | 352 | 14.0 | 17.0 | 0.00 | 0.25 | 0.25 | 83 | 1007.5 |
| 20260506220032 | 57 | 9 | 10.0 | 18.0 | 0.00 | 0.25 | 0.25 | 83 | 1007.1 |
| 20260506215514 | 58 | 349 | 11.0 | 22.0 | 0.00 | 0.25 | 0.25 | 82 | 1006.9 |
| 20260506215014 | 60 | 352 | 14.0 | 22.0 | 0.00 | 0.25 | 0.25 | 80 | 1006.8 |
| 20260506214529 | 61 | 15 | 14.0 | 20.0 | 0.00 | 0.25 | 0.25 | 80 | 1006.7 |
| 20260506214014 | 62 | 30 | 3.0 | 9.0 | 0.00 | 0.25 | 0.25 | 81 | 1006.3 |
| 20260506213514 | 62 | 308 | 2.0 | 9.0 | 0.00 | 0.25 | 0.25 | 81 | 1006.2 |
| 20260506213040 | 62 | 328 | 1.0 | 7.0 | 0.00 | 0.25 | 0.25 | 81 | 1006.1 |
| 20260506212514 | 62 | 307 | 1.0 | 9.0 | 0.00 | 0.25 | 0.25 | 81 | 1006.1 |
| 20260506212014 | 62 | 0 | 2.0 | 9.0 | 0.00 | 0.25 | 0.25 | 81 | 1006.2 |
| 20260506211540 | 62 | 346 | 4.0 | 9.0 | 0.00 | 0.25 | 0.25 | 81 | 1006.1 |
| 20260506211014 | 62 | 350 | 4.0 | 9.0 | 0.00 | 0.25 | 0.25 | 81 | 1006.1 |
| 20260506210519 | 62 | 352 | 4.0 | 10.0 | 0.00 | 0.25 | 0.25 | 81 | 1006.3 |
| 20260506210044 | 62 | 320 | 3.0 | 11.0 | 0.00 | 0.25 | 0.25 | 81 | 1006.0 |
| 20260506205517 | 61 | 313 | 1.0 | 11.0 | 0.00 | 0.25 | 0.25 | 82 | 1006.1 |
| 20260506205015 | 61 | 292 | 6.0 | 11.0 | 0.00 | 0.25 | 0.25 | 82 | 1006.1 |
| 20260506204535 | 61 | 323 | 1.0 | 7.0 | 0.00 | 0.25 | 0.25 | 83 | 1006.0 |
| 20260506204015 | 61 | 333 | 4.0 | 7.0 | 0.00 | 0.25 | 0.25 | 83 | 1005.9 |
| 20260506203518 | 61 | 331 | 1.0 | 10.0 | 0.00 | 0.25 | 0.25 | 83 | 1006.1 |
| 20260506203035 | 61 | 315 | 3.0 | 10.0 | 0.00 | 0.25 | 0.25 | 83 | 1006.1 |
| 20260506202517 | 61 | 300 | 2.0 | 10.0 | 0.00 | 0.25 | 0.25 | 83 | 1006.1 |
| 20260506202017 | 61 | 308 | 2.0 | 9.0 | 0.00 | 0.25 | 0.25 | 83 | 1006.1 |
| 20260506201537 | 61 | 301 | 2.0 | 13.0 | 0.00 | 0.25 | 0.25 | 83 | 1006.0 |
| 20260506201017 | 61 | 267 | 3.0 | 13.0 | 0.00 | 0.25 | 0.25 | 83 | 1006.1 |
| 20260506200516 | 62 | 315 | 6.0 | 13.0 | 0.00 | 0.25 | 0.25 | 82 | 1006.2 |
| 20260506200033 | 62 | 291 | 3.0 | 8.0 | 0.00 | 0.25 | 0.25 | 83 | 1006.2 |
| 20260506195517 | 62 | 342 | 1.0 | 8.0 | 0.00 | 0.25 | 0.25 | 83 | 1006.2 |
| 20260506195018 | 61 | 329 | 3.0 | 8.0 | 0.00 | 0.25 | 0.25 | 84 | 1006.2 |
| 20260506194537 | 61 | 0 | 1.0 | 8.0 | 0.00 | 0.25 | 0.25 | 85 | 1006.2 |
| 20260506194017 | 61 | 295 | 1.0 | 8.0 | 0.00 | 0.25 | 0.25 | 85 | 1006.2 |
| 20260506193517 | 60 | 323 | 2.0 | 10.0 | 0.00 | 0.25 | 0.25 | 85 | 1006.4 |
| 20260506193045 | 60 | 186 | 2.0 | 10.0 | 0.00 | 0.25 | 0.25 | 86 | 1006.4 |
| 20260506192517 | 60 | 302 | 1.0 | 6.0 | 0.00 | 0.25 | 0.25 | 86 | 1006.5 |
| 20260506192015 | 60 | 71 | 1.0 | 7.0 | 0.00 | 0.25 | 0.25 | 86 | 1006.5 |
| 20260506191535 | 60 | 0 | 1.0 | 7.0 | 0.00 | 0.25 | 0.25 | 85 | 1006.5 |
| 20260506191018 | 60 | 308 | 2.0 | 8.0 | 0.00 | 0.25 | 0.25 | 85 | 1006.5 |
| 20260506190518 | 60 | 0 | 2.0 | 9.0 | 0.00 | 0.25 | 0.25 | 85 | 1006.6 |
| 20260506190034 | 60 | 265 | 2.0 | 10.0 | 0.00 | 0.25 | 0.25 | 86 | 1006.6 |
| 20260506185517 | 60 | 299 | 4.0 | 10.0 | 0.00 | 0.25 | 0.25 | 86 | 1006.6 |
| 20260506185015 | 60 | 219 | 3.0 | 8.0 | 0.01 | 0.25 | 0.25 | 86 | 1006.7 |
| 20260506184532 | 60 | 240 | 1.0 | 9.0 | 0.01 | 0.25 | 0.25 | 87 | 1006.8 |
| 20260506184019 | 60 | 0 | 2.0 | 12.0 | 0.01 | 0.25 | 0.25 | 87 | 1006.6 |
| 20260506183518 | 60 | 258 | 3.0 | 12.0 | 0.01 | 0.25 | 0.25 | 88 | 1006.4 |
| 20260506183033 | 60 | 178 | 2.0 | 11.0 | 0.01 | 0.25 | 0.25 | 88 | 1006.5 |
| 20260506182515 | 59 | 220 | 3.0 | 11.0 | 0.01 | 0.25 | 0.25 | 88 | 1006.6 |
| 20260506182019 | 59 | 221 | 3.0 | 10.0 | 0.01 | 0.25 | 0.25 | 88 | 1006.7 |
| 20260506181543 | 59 | 0 | 1.0 | 7.0 | 0.01 | 0.25 | 0.25 | 89 | 1006.7 |
| 20260506181018 | 59 | 0 | 1.0 | 7.0 | 0.01 | 0.25 | 0.25 | 88 | 1006.9 |
| 20260506180519 | 59 | 272 | 3.0 | 10.0 | 0.02 | 0.25 | 0.25 | 88 | 1007.0 |
| 20260506180036 | 59 | 0 | 2.0 | 10.0 | 0.02 | 0.25 | 0.25 | 88 | 1007.1 |
| 20260506175529 | 59 | 0 | 0.0 | 7.0 | 0.02 | 0.25 | 0.25 | 88 | 1007.1 |
| 20260506175016 | 59 | 0 | 1.0 | 7.0 | 0.01 | 0.24 | 0.24 | 87 | 1007.2 |
| 20260506174534 | 59 | 223 | 2.0 | 8.0 | 0.01 | 0.24 | 0.24 | 87 | 1007.1 |
| 20260506174016 | 59 | 211 | 3.0 | 8.0 | 0.01 | 0.24 | 0.24 | 87 | 1007.1 |
| 20260506173515 | 59 | 279 | 0.0 | 5.0 | 0.02 | 0.24 | 0.24 | 87 | 1007.2 |
| 20260506173053 | 59 | 0 | 1.0 | 5.0 | 0.02 | 0.24 | 0.24 | 88 | 1007.0 |
| 20260506172513 | 59 | 320 | 1.0 | 4.0 | 0.02 | 0.24 | 0.24 | 88 | 1007.0 |
| 20260506172015 | 59 | 342 | 1.0 | 6.0 | 0.02 | 0.24 | 0.24 | 87 | 1007.0 |
| 20260506171539 | 59 | 0 | 1.0 | 9.0 | 0.03 | 0.24 | 0.24 | 87 | 1007.0 |
| 20260506171017 | 59 | 146 | 2.0 | 9.0 | 0.04 | 0.24 | 0.24 | 87 | 1007.0 |
| 20260506170514 | 59 | 260 | 2.0 | 9.0 | 0.04 | 0.23 | 0.23 | 87 | 1007.1 |
| 20260506170048 | 59 | 121 | 1.0 | 6.0 | 0.04 | 0.23 | 0.23 | 87 | 1007.0 |
| 20260506165517 | 59 | 0 | 1.0 | 6.0 | 0.05 | 0.23 | 0.23 | 87 | 1007.0 |
| 20260506165014 | 59 | 0 | 0.0 | 6.0 | 0.06 | 0.23 | 0.23 | 87 | 1007.1 |
| 20260506164533 | 59 | 236 | 2.0 | 8.0 | 0.08 | 0.23 | 0.23 | 87 | 1006.9 |
| 20260506164016 | 59 | 5 | 3.0 | 8.0 | 0.08 | 0.23 | 0.23 | 87 | 1006.9 |
| 20260506163515 | 59 | 186 | 3.0 | 9.0 | 0.08 | 0.22 | 0.22 | 87 | 1007.0 |
| 20260506163033 | 59 | 159 | 1.0 | 9.0 | 0.09 | 0.22 | 0.22 | 87 | 1007.1 |
| 20260506162513 | 59 | 0 | 1.0 | 4.0 | 0.09 | 0.22 | 0.22 | 87 | 1007.1 |
| 20260506162020 | 59 | 267 | 0.0 | 8.0 | 0.09 | 0.22 | 0.22 | 87 | 1007.3 |
| 20260506161530 | 59 | 0 | 1.0 | 8.0 | 0.08 | 0.21 | 0.21 | 87 | 1007.3 |
| 20260506161018 | 59 | 182 | 0.0 | 7.0 | 0.08 | 0.20 | 0.20 | 87 | 1007.2 |
| 20260506160514 | 59 | 182 | 1.0 | 7.0 | 0.07 | 0.19 | 0.19 | 87 | 1007.2 |
| 20260506160034 | 59 | 213 | 3.0 | 8.0 | 0.07 | 0.19 | 0.19 | 87 | 1007.2 |
| 20260506155514 | 59 | 234 | 2.0 | 8.0 | 0.06 | 0.18 | 0.18 | 87 | 1007.3 |
| 20260506155014 | 59 | 221 | 2.0 | 8.0 | 0.05 | 0.17 | 0.17 | 87 | 1007.5 |
| 20260506154533 | 59 | 0 | 0.0 | 6.0 | 0.04 | 0.15 | 0.15 | 87 | 1007.6 |
| 20260506154015 | 59 | 238 | 2.0 | 10.0 | 0.03 | 0.14 | 0.14 | 86 | 1007.8 |
| 20260506153515 | 59 | 337 | 2.0 | 10.0 | 0.04 | 0.14 | 0.14 | 86 | 1007.8 |
| 20260506153029 | 59 | 285 | 2.0 | 10.0 | 0.04 | 0.13 | 0.13 | 86 | 1007.7 |
| 20260506152514 | 59 | 229 | 0.0 | 6.0 | 0.04 | 0.13 | 0.13 | 86 | 1007.7 |
| 20260506152013 | 59 | 265 | 1.0 | 5.0 | 0.05 | 0.13 | 0.13 | 86 | 1007.6 |
| 20260506151532 | 59 | 152 | 1.0 | 5.0 | 0.05 | 0.13 | 0.13 | 86 | 1007.7 |
| 20260506151013 | 59 | 259 | 0.0 | 4.0 | 0.04 | 0.12 | 0.12 | 86 | 1007.6 |
| 20260506150514 | 59 | 148 | 0.0 | 2.0 | 0.05 | 0.12 | 0.12 | 86 | 1007.5 |
| 20260506150031 | 59 | 0 | 0.0 | 3.0 | 0.06 | 0.12 | 0.12 | 86 | 1007.5 |
| 20260506145518 | 59 | 0 | 0.0 | 3.0 | 0.06 | 0.12 | 0.12 | 87 | 1007.6 |
| 20260506145014 | 59 | 0 | 0.0 | 6.0 | 0.07 | 0.12 | 0.12 | 86 | 1007.6 |
| 20260506144529 | 59 | 0 | 0.0 | 6.0 | 0.07 | 0.11 | 0.11 | 86 | 1007.4 |
| 20260506144018 | 59 | 202 | 2.0 | 6.0 | 0.07 | 0.11 | 0.11 | 86 | 1007.6 |
| 20260506143514 | 59 | 233 | 3.0 | 10.0 | 0.07 | 0.10 | 0.10 | 86 | 1007.7 |
| 20260506143034 | 59 | 193 | 4.0 | 10.0 | 0.07 | 0.09 | 0.09 | 86 | 1007.8 |
| 20260506142514 | 59 | 284 | 2.0 | 8.0 | 0.08 | 0.09 | 0.09 | 86 | 1008.0 |
| 20260506142011 | 59 | 242 | 1.0 | 8.0 | 0.07 | 0.08 | 0.08 | 86 | 1008.1 |
| 20260506141532 | 59 | 183 | 1.0 | 9.0 | 0.08 | 0.08 | 0.08 | 86 | 1008.1 |
| 20260506141014 | 59 | 196 | 2.0 | 9.0 | 0.08 | 0.08 | 0.08 | 86 | 1008.0 |
| 20260506140515 | 59 | 286 | 2.0 | 9.0 | 0.07 | 0.07 | 0.07 | 86 | 1008.3 |
| 20260506140035 | 59 | 189 | 2.0 | 8.0 | 0.06 | 0.06 | 0.06 | 85 | 1008.3 |
| 20260506135513 | 59 | 205 | 2.0 | 6.0 | 0.05 | 0.05 | 0.05 | 85 | 1008.4 |
| 20260506135011 | 59 | 250 | 2.0 | 6.0 | 0.05 | 0.05 | 0.05 | 85 | 1008.3 |
| 20260506134532 | 59 | 194 | 1.0 | 4.0 | 0.04 | 0.04 | 0.04 | 85 | 1008.4 |
| 20260506134015 | 59 | 0 | 0.0 | 7.0 | 0.03 | 0.03 | 0.03 | 85 | 1008.4 |
| 20260506133518 | 59 | 292 | 1.0 | 8.0 | 0.03 | 0.03 | 0.03 | 84 | 1008.6 |
| 20260506133038 | 59 | 222 | 3.0 | 8.0 | 0.02 | 0.02 | 0.02 | 83 | 1008.5 |
| 20260506132515 | 60 | 207 | 1.0 | 8.0 | 0.01 | 0.01 | 0.01 | 83 | 1008.7 |
| 20260506132017 | 60 | 333 | 2.0 | 8.0 | 0.01 | 0.01 | 0.01 | 82 | 1008.7 |
| 20260506131530 | 60 | 258 | 3.0 | 11.0 | 0.00 | 0.00 | 0.00 | 82 | 1008.7 |
| 20260506131016 | 61 | 236 | 1.0 | 14.0 | 0.00 | 0.00 | 0.00 | 81 | 1008.7 |
| 20260506130516 | 61 | 0 | 2.0 | 18.0 | 0.00 | 0.00 | 0.00 | 80 | 1008.6 |
| 20260506130030 | 61 | 196 | 1.0 | 18.0 | 0.00 | 0.00 | 0.00 | 79 | 1008.5 |
| 20260506125513 | 61 | 253 | 4.0 | 17.0 | 0.00 | 0.00 | 0.00 | 79 | 1008.2 |
| 20260506125014 | 61 | 124 | 2.0 | 10.0 | 0.00 | 0.00 | 0.00 | 78 | 1008.2 |
| 20260506124530 | 61 | 0 | 2.0 | 10.0 | 0.00 | 0.00 | 0.00 | 78 | 1008.2 |
| 20260506124013 | 61 | 198 | 3.0 | 9.0 | 0.00 | 0.00 | 0.00 | 78 | 1008.1 |
| 20260506123512 | 61 | 232 | 3.0 | 8.0 | 0.00 | 0.00 | 0.00 | 78 | 1007.9 |
| 20260506123032 | 61 | 213 | 2.0 | 9.0 | 0.00 | 0.00 | 0.00 | 78 | 1007.9 |
| 20260506122516 | 61 | 5 | 4.0 | 9.0 | 0.00 | 0.00 | 0.00 | 78 | 1008.0 |
| 20260506122016 | 61 | 267 | 3.0 | 8.0 | 0.00 | 0.00 | 0.00 | 78 | 1008.0 |
| 20260506121530 | 61 | 0 | 2.0 | 7.0 | 0.00 | 0.00 | 0.00 | 77 | 1008.1 |
| 20260506121015 | 61 | 248 | 3.0 | 15.0 | 0.00 | 0.00 | 0.00 | 77 | 1008.1 |
| 20260506120514 | 61 | 221 | 3.0 | 15.0 | 0.00 | 0.00 | 0.00 | 76 | 1008.1 |
| 20260506120028 | 62 | 171 | 3.0 | 10.0 | 0.00 | 0.00 | 0.00 | 75 | 1008.1 |
| 20260506115514 | 62 | 215 | 2.0 | 10.0 | 0.00 | 0.00 | 0.00 | 73 | 1008.2 |
| 20260506115017 | 62 | 292 | 2.0 | 11.0 | 0.00 | 0.00 | 0.00 | 73 | 1008.4 |
| 20260506114536 | 62 | 190 | 3.0 | 11.0 | 0.00 | 0.00 | 0.00 | 71 | 1008.3 |
| 20260506114014 | 62 | 245 | 3.0 | 14.0 | 0.00 | 0.00 | 0.00 | 71 | 1008.3 |
| 20260506113520 | 62 | 226 | 5.0 | 15.0 | 0.00 | 0.00 | 0.00 | 71 | 1008.1 |
| 20260506113030 | 62 | 188 | 4.0 | 15.0 | 0.00 | 0.00 | 0.00 | 70 | 1008.1 |
| 20260506112515 | 62 | 0 | 0.0 | 11.0 | 0.00 | 0.00 | 0.00 | 70 | 1008.1 |
| 20260506112016 | 62 | 211 | 4.0 | 11.0 | 0.00 | 0.00 | 0.00 | 70 | 1008.1 |
| 20260506111535 | 62 | 163 | 1.0 | 7.0 | 0.00 | 0.00 | 0.00 | 69 | 1008.1 |
| 20260506111016 | 62 | 0 | 1.0 | 16.0 | 0.00 | 0.00 | 0.00 | 69 | 1008.2 |
| 20260506110515 | 62 | 0 | 2.0 | 16.0 | 0.00 | 0.00 | 0.00 | 69 | 1007.9 |
| 20260506110041 | 62 | 215 | 4.0 | 15.0 | 0.00 | 0.00 | 0.00 | 68 | 1008.1 |
| 20260506105517 | 62 | 223 | 1.0 | 10.0 | 0.00 | 0.00 | 0.00 | 68 | 1007.7 |
| 20260506105015 | 62 | 257 | 2.0 | 10.0 | 0.00 | 0.00 | 0.00 | 67 | 1007.5 |
| 20260506104554 | 63 | 217 | 2.0 | 8.0 | 0.00 | 0.00 | 0.00 | 67 | 1007.5 |
| 20260506104015 | 63 | 204 | 2.0 | 7.0 | 0.00 | 0.00 | 0.00 | 66 | 1007.5 |
| 20260506103517 | 63 | 265 | 2.0 | 7.0 | 0.00 | 0.00 | 0.00 | 66 | 1007.6 |
| 20260506103039 | 63 | 246 | 2.0 | 7.0 | 0.00 | 0.00 | 0.00 | 66 | 1007.6 |
| 20260506102515 | 63 | 213 | 2.0 | 10.0 | 0.00 | 0.00 | 0.00 | 65 | 1007.5 |
| 20260506102016 | 63 | 281 | 2.0 | 10.0 | 0.00 | 0.00 | 0.00 | 65 | 1007.4 |
| 20260506101533 | 63 | 0 | 2.0 | 10.0 | 0.00 | 0.00 | 0.00 | 64 | 1007.5 |
| 20260506101014 | 63 | 209 | 4.0 | 10.0 | 0.00 | 0.00 | 0.00 | 64 | 1007.6 |
| 20260506100519 | 63 | 190 | 2.0 | 7.0 | 0.00 | 0.00 | 0.00 | 64 | 1007.7 |
| 20260506100042 | 63 | 0 | 2.0 | 7.0 | 0.00 | 0.00 | 0.00 | 63 | 1007.7 |
| 20260506095517 | 63 | 194 | 1.0 | 7.0 | 0.00 | 0.00 | 0.00 | 63 | 1007.7 |
| 20260506095016 | 63 | 213 | 2.0 | 7.0 | 0.00 | 0.00 | 0.00 | 62 | 1007.8 |
| 20260506094538 | 63 | 0 | 2.0 | 8.0 | 0.00 | 0.00 | 0.00 | 62 | 1007.7 |
| 20260506094019 | 63 | 225 | 1.0 | 8.0 | 0.00 | 0.00 | 0.00 | 62 | 1007.7 |
| 20260506093514 | 63 | 176 | 4.0 | 8.0 | 0.00 | 0.00 | 0.00 | 61 | 1007.5 |
| 20260506093035 | 64 | 231 | 3.0 | 9.0 | 0.00 | 0.00 | 0.00 | 61 | 1007.5 |
| 20260506092514 | 64 | 213 | 4.0 | 9.0 | 0.00 | 0.00 | 0.00 | 60 | 1007.8 |
| 20260506092017 | 64 | 231 | 1.0 | 5.0 | 0.00 | 0.00 | 0.00 | 60 | 1007.7 |
| 20260506091531 | 64 | 209 | 1.0 | 8.0 | 0.00 | 0.00 | 0.00 | 60 | 1007.7 |
| 20260506091016 | 64 | 188 | 2.0 | 8.0 | 0.00 | 0.00 | 0.00 | 60 | 1007.7 |
| 20260506090520 | 64 | 215 | 3.0 | 9.0 | 0.00 | 0.00 | 0.00 | 59 | 1007.7 |
| 20260506090042 | 64 | 198 | 1.0 | 9.0 | 0.00 | 0.00 | 0.00 | 59 | 1007.9 |
| 20260506085517 | 64 | 296 | 3.0 | 9.0 | 0.00 | 0.00 | 0.00 | 59 | 1008.1 |
| 20260506085017 | 64 | 203 | 4.0 | 13.0 | 0.00 | 0.00 | 0.00 | 59 | 1008.0 |
| 20260506084533 | 64 | 0 | 4.0 | 13.0 | 0.00 | 0.00 | 0.00 | 59 | 1007.9 |
| 20260506084022 | 64 | 0 | 2.0 | 8.0 | 0.00 | 0.00 | 0.00 | 58 | 1007.9 |
| 20260506083518 | 64 | 201 | 2.0 | 8.0 | 0.00 | 0.00 | 0.00 | 58 | 1007.8 |
| 20260506083040 | 64 | 237 | 1.0 | 8.0 | 0.00 | 0.00 | 0.00 | 58 | 1007.8 |
| 20260506082516 | 64 | 232 | 2.0 | 6.0 | 0.00 | 0.00 | 0.00 | 57 | 1007.8 |
| 20260506082018 | 65 | 172 | 2.0 | 8.0 | 0.00 | 0.00 | 0.00 | 57 | 1007.8 |
| 20260506081531 | 65 | 203 | 3.0 | 8.0 | 0.00 | 0.00 | 0.00 | 57 | 1007.8 |
| 20260506081020 | 65 | 190 | 1.0 | 7.0 | 0.00 | 0.00 | 0.00 | 56 | 1007.8 |
| 20260506080517 | 65 | 181 | 3.0 | 9.0 | 0.00 | 0.00 | 0.00 | 56 | 1007.9 |
| 20260506073520 | 65 | 166 | 3.0 | 10.0 | 0.00 | 0.00 | 0.00 | 54 | 1008.1 |
| 20260506073035 | 65 | 192 | 4.0 | 10.0 | 0.00 | 0.00 | 0.00 | 54 | 1008.0 |
| 20260506072517 | 65 | 187 | 3.0 | 9.0 | 0.00 | 0.00 | 0.00 | 54 | 1008.2 |
| 20260506072015 | 66 | 155 | 1.0 | 14.0 | 0.00 | 0.00 | 0.00 | 54 | 1008.1 |
| 20260506071534 | 66 | 204 | 2.0 | 14.0 | 0.00 | 0.00 | 0.00 | 53 | 1008.1 |
| 20260506071017 | 66 | 198 | 1.0 | 9.0 | 0.00 | 0.00 | 0.00 | 53 | 1008.0 |
| 20260506070516 | 65 | 205 | 3.0 | 10.0 | 0.00 | 0.00 | 0.00 | 53 | 1008.1 |
| 20260506062015 | 65 | 202 | 2.0 | 9.0 | 0.00 | 0.00 | 0.00 | 53 | 1008.7 |
| 20260506061531 | 65 | 161 | 3.0 | 8.0 | 0.00 | 0.00 | 0.00 | 53 | 1008.8 |
| 20260506061016 | 65 | 213 | 2.0 | 6.0 | 0.00 | 0.00 | 0.00 | 53 | 1008.8 |
| 20260506060517 | 66 | 202 | 2.0 | 10.0 | 0.00 | 0.00 | 0.00 | 53 | 1008.9 |
| 20260506051016 | 67 | 235 | 3.0 | 8.0 | 0.00 | 0.00 | 0.00 | 49 | 1008.9 |
| 20260506050514 | 67 | 186 | 3.0 | 12.0 | 0.00 | 0.00 | 0.00 | 49 | 1009.0 |
| 20260506045014 | 67 | 278 | 2.0 | 8.0 | 0.00 | 0.00 | 0.00 | 48 | 1009.1 |
| 20260506044535 | 67 | 129 | 1.0 | 8.0 | 0.00 | 0.00 | 0.00 | 48 | 1009.1 |
| 20260506044013 | 67 | 150 | 2.0 | 8.0 | 0.00 | 0.00 | 0.00 | 47 | 1009.1 |
| 20260506043518 | 67 | 235 | 2.0 | 9.0 | 0.00 | 0.00 | 0.00 | 47 | 1009.2 |
| 20260506043034 | 67 | 257 | 2.0 | 9.0 | 0.00 | 0.00 | 0.00 | 47 | 1009.1 |
| 20260506042518 | 67 | 0 | 0.0 | 9.0 | 0.00 | 0.00 | 0.00 | 47 | 1009.1 |
| 20260506042015 | 67 | 0 | 1.0 | 9.0 | 0.00 | 0.00 | 0.00 | 48 | 1009.1 |
| 20260506041532 | 67 | 215 | 3.0 | 9.0 | 0.00 | 0.00 | 0.00 | 47 | 1009.1 |
| 20260506041015 | 67 | 202 | 1.0 | 5.0 | 0.00 | 0.00 | 0.00 | 47 | 1009.2 |
| 20260506040516 | 67 | 11 | 0.0 | 8.0 | 0.00 | 0.00 | 0.00 | 48 | 1009.2 |
| 20260506040045 | 68 | 0 | 1.0 | 8.0 | 0.00 | 0.00 | 0.00 | 47 | 1009.2 |
| 20260506035516 | 68 | 195 | 3.0 | 9.0 | 0.00 | 0.00 | 0.00 | 47 | 1009.3 |
| 20260506035016 | 68 | 0 | 0.0 | 9.0 | 0.00 | 0.00 | 0.00 | 47 | 1009.2 |
| 20260506034533 | 68 | 330 | 2.0 | 11.0 | 0.00 | 0.00 | 0.00 | 47 | 1009.2 |
| 20260506034014 | 68 | 0 | 0.0 | 11.0 | 0.00 | 0.00 | 0.00 | 47 | 1009.2 |
| 20260506033514 | 68 | 203 | 0.0 | 9.0 | 0.00 | 0.00 | 0.00 | 46 | 1009.2 |
| 20260506033032 | 68 | 225 | 3.0 | 9.0 | 0.00 | 0.00 | 0.00 | 46 | 1009.2 |
| 20260506032514 | 68 | 194 | 1.0 | 7.0 | 0.00 | 0.00 | 0.00 | 46 | 1009.1 |
| 20260506032017 | 68 | 324 | 2.0 | 7.0 | 0.00 | 0.00 | 0.00 | 46 | 1009.0 |
| 20260506031533 | 69 | 214 | 2.0 | 10.0 | 0.00 | 0.00 | 0.00 | 46 | 1009.1 |
| 20260506031017 | 69 | 183 | 1.0 | 10.0 | 0.00 | 0.00 | 0.00 | 45 | 1009.1 |
| 20260506030515 | 69 | 5 | 3.0 | 8.0 | 0.00 | 0.00 | 0.00 | 45 | 1009.2 |
| 20260506030031 | 69 | 207 | 2.0 | 9.0 | 0.00 | 0.00 | 0.00 | 45 | 1009.1 |
| 20260506025515 | 69 | 207 | 0.0 | 9.0 | 0.00 | 0.00 | 0.00 | 45 | 1009.2 |
| 20260506025016 | 69 | 196 | 4.0 | 9.0 | 0.00 | 0.00 | 0.00 | 45 | 1009.2 |
| 20260506024541 | 69 | 0 | 3.0 | 11.0 | 0.00 | 0.00 | 0.00 | 45 | 1009.2 |
| 20260506024017 | 69 | 271 | 3.0 | 11.0 | 0.00 | 0.00 | 0.00 | 45 | 1009.2 |
| 20260506023529 | 70 | 227 | 2.0 | 8.0 | 0.00 | 0.00 | 0.00 | 45 | 1009.3 |
| 20260506023032 | 70 | 238 | 2.0 | 8.0 | 0.00 | 0.00 | 0.00 | 44 | 1009.3 |
| 20260506022515 | 70 | 227 | 1.0 | 7.0 | 0.00 | 0.00 | 0.00 | 44 | 1009.3 |
| 20260506022015 | 70 | 250 | 3.0 | 7.0 | 0.00 | 0.00 | 0.00 | 43 | 1009.3 |
| 20260506021546 | 70 | 213 | 1.0 | 14.0 | 0.00 | 0.00 | 0.00 | 44 | 1009.3 |
| 20260506021016 | 71 | 136 | 4.0 | 14.0 | 0.00 | 0.00 | 0.00 | 44 | 1009.3 |
| 20260506020521 | 71 | 202 | 4.0 | 12.0 | 0.00 | 0.00 | 0.00 | 43 | 1009.4 |
| 20260506020030 | 71 | 0 | 0.0 | 5.0 | 0.00 | 0.00 | 0.00 | 43 | 1009.3 |
| 20260506015517 | 71 | 0 | 1.0 | 10.0 | 0.00 | 0.00 | 0.00 | 43 | 1009.3 |
| 20260506015017 | 71 | 185 | 2.0 | 10.0 | 0.00 | 0.00 | 0.00 | 42 | 1009.2 |
| 20260506014530 | 71 | 0 | 2.0 | 10.0 | 0.00 | 0.00 | 0.00 | 42 | 1009.2 |
| 20260506014014 | 71 | 249 | 3.0 | 13.0 | 0.00 | 0.00 | 0.00 | 41 | 1009.1 |
| 20260506013516 | 71 | 0 | 3.0 | 13.0 | 0.00 | 0.00 | 0.00 | 41 | 1009.0 |
| 20260506013032 | 71 | 330 | 0.0 | 7.0 | 0.00 | 0.00 | 0.00 | 42 | 1009.0 |
| 20260506012516 | 72 | 175 | 2.0 | 11.0 | 0.00 | 0.00 | 0.00 | 41 | 1008.9 |
| 20260506012017 | 72 | 0 | 1.0 | 11.0 | 0.00 | 0.00 | 0.00 | 42 | 1008.9 |
| 20260506011540 | 72 | 167 | 2.0 | 9.0 | 0.00 | 0.00 | 0.00 | 41 | 1008.8 |
| 20260506011015 | 72 | 352 | 1.0 | 11.0 | 0.00 | 0.00 | 0.00 | 42 | 1008.7 |
| 20260506010518 | 72 | 307 | 1.0 | 11.0 | 0.00 | 0.00 | 0.00 | 41 | 1008.7 |
| 20260506010045 | 72 | 317 | 0.0 | 7.0 | 0.00 | 0.00 | 0.00 | 41 | 1008.5 |
| 20260506005516 | 72 | 228 | 2.0 | 10.0 | 0.00 | 0.00 | 0.00 | 41 | 1008.5 |
| 20260506005017 | 73 | 176 | 3.0 | 14.0 | 0.00 | 0.00 | 0.00 | 41 | 1008.4 |
| 20260506004532 | 73 | 219 | 1.0 | 14.0 | 0.00 | 0.00 | 0.00 | 41 | 1008.5 |
| 20260506004014 | 73 | 188 | 2.0 | 9.0 | 0.00 | 0.00 | 0.00 | 41 | 1008.5 |
| 20260506003515 | 73 | 209 | 2.0 | 9.0 | 0.00 | 0.00 | 0.00 | 40 | 1008.4 |
| 20260506003033 | 73 | 0 | 3.0 | 9.0 | 0.00 | 0.00 | 0.00 | 40 | 1008.3 |
| 20260506002517 | 73 | 0 | 1.0 | 11.0 | 0.00 | 0.00 | 0.00 | 41 | 1008.3 |
| 20260506002016 | 73 | 248 | 4.0 | 12.0 | 0.00 | 0.00 | 0.00 | 41 | 1008.2 |
| 20260506001530 | 73 | 223 | 5.0 | 12.0 | 0.00 | 0.00 | 0.00 | 41 | 1008.1 |
| 20260506001015 | 73 | 215 | 2.0 | 9.0 | 0.00 | 0.00 | 0.00 | 40 | 1008.1 |
| 20260506000517 | 73 | 0 | 2.0 | 9.0 | 0.00 | 0.00 | 0.00 | 40 | 1008.2 |
| 20260506000034 | 73 | 194 | 3.0 | 9.0 | 0.00 | 0.00 | 0.00 | 40 | 1008.1 |
| 20260505235516 | 73 | 0 | 1.0 | 7.0 | 0.00 | 0.00 | 0.00 | 40 | 1008.1 |
| 20260505235016 | 73 | 196 | 3.0 | 7.0 | 0.00 | 0.00 | 0.00 | 40 | 1008.0 |
| 20260505234552 | 73 | 227 | 1.0 | 6.0 | 0.00 | 0.00 | 0.00 | 39 | 1008.0 |
| 20260505234016 | 73 | 186 | 1.0 | 10.0 | 0.00 | 0.00 | 0.00 | 39 | 1008.0 |
| 20260505233519 | 74 | 207 | 3.0 | 11.0 | 0.00 | 0.00 | 0.00 | 39 | 1008.0 |
| 20260505233034 | 74 | 260 | 3.0 | 11.0 | 0.00 | 0.00 | 0.00 | 38 | 1008.0 |
| 20260505232514 | 74 | 0 | 0.0 | 6.0 | 0.00 | 0.00 | 0.00 | 39 | 1007.9 |
| 20260505232016 | 74 | 211 | 2.0 | 10.0 | 0.00 | 0.00 | 0.00 | 38 | 1007.9 |
| 20260505231533 | 74 | 258 | 2.0 | 10.0 | 0.00 | 0.00 | 0.00 | 38 | 1007.9 |
| 20260505231016 | 74 | 255 | 3.0 | 10.0 | 0.00 | 0.00 | 0.00 | 38 | 1007.9 |
| 20260505230516 | 74 | 241 | 2.0 | 8.0 | 0.00 | 0.00 | 0.00 | 38 | 1007.8 |
| 20260505230030 | 74 | 276 | 1.0 | 7.0 | 0.00 | 0.00 | 0.00 | 37 | 1007.8 |
| 20260505225516 | 74 | 38 | 2.0 | 8.0 | 0.00 | 0.00 | 0.00 | 36 | 1007.7 |
| 20260505225014 | 74 | 0 | 1.0 | 8.0 | 0.00 | 0.00 | 0.00 | 36 | 1007.6 |
| 20260505224533 | 74 | 257 | 2.0 | 8.0 | 0.00 | 0.00 | 0.00 | 36 | 1007.6 |
| 20260505224021 | 74 | 98 | 1.0 | 6.0 | 0.00 | 0.00 | 0.00 | 36 | 1007.4 |
| 20260505223516 | 74 | 339 | 1.0 | 9.0 | 0.00 | 0.00 | 0.00 | 36 | 1007.6 |
| 20260505223029 | 74 | 212 | 2.0 | 16.0 | 0.00 | 0.00 | 0.00 | 36 | 1007.6 |
| 20260505222516 | 74 | 88 | 4.0 | 16.0 | 0.00 | 0.00 | 0.00 | 36 | 1007.5 |